User: anonymous   Login
Location: Unspecified
(26.1540°N, 0.0000°E)
Time: 18:50:32
(UTC+00:00)
Language:

TECHNOSAT - Orbit

View from above orbital plane
View from above orbital plane
View from above satellite
View from above satellite

Ground track
Ground track

The orbit is defined by the following mean orbital elements,

1 42829U          26087.98370547 +.00000000 +00000-0 +33255-3 0 00005
2 42829  97.4186 248.7638 0017896  12.3109 347.8551 15.04440964    07
Epoch (UTC): 28 March 2026 23:36:32
Eccentricity: 0.0017896
inclination: 97.4186°
perigee height: 541 km
apogee height: 566 km
right ascension of ascending node: 248.7638°
argument of perigee: 12.3109°
revolutions per day: 15.04440964
mean anomaly at epoch: 347.8551°

The dashed part of the orbit path shows where the satellite is in the earth's shadow,  

DLR